Regional Weather Roundup
Issued by NWS Jackson, KY

Home | Current Version | Previous Version | Text Only | Print | Product List | Glossary Off
Versions: 1 2 3 4 5 6 7 8 9 10 11 12 13 14 15 16 17 18 19 20 21 22 23 24 25 26 27 28

000
ASUS43 KJKL 310410
RWRJKL

EAST KENTUCKY HOURLY WEATHER ROUNDUP
NATIONAL WEATHER SERVICE JACKSON KY
1200 AM EDT TUE MAY 31 2016

NOTE: "FAIR" INDICATES FEW OR NO CLOUDS BELOW 12,000 FEET WITH
NO SIGNIFICANT WEATHER AND/OR OBSTRUCTIONS TO VISIBILITY.

* THESE REPORTS ARE NOT UNDER NWS QUALITY CONTROL AND MAY NOT
  REPORT WEATHER SUCH AS PRECIPITATION AND FOG.

KYZ079-080-083-085-087-088-110-112-115-119-120-310500
...EASTERN KENTUCKY...

CITY           SKY/WX    TMP DP  RH WIND       PRES   REMARKS
JACKSON        CLEAR     71  59  65 CALM      30.03S
LONDON         CLEAR     67  62  84 CALM      30.02S
SOMERSET*      CLEAR     64  63  94 CALM      30.02S
MONTICELLO*    CLEAR     63  61  93 NW9       30.03R
WILLIAMSBURG*  CLEAR     61  61 100 CALM      30.02S
MIDDLESBORO*   CLEAR     65  63  93 CALM      30.02F
HARLAN APT*      N/A     63  61  94 CALM      30.04F
BLACK MTN*       N/A     61  59  94 N3          N/A
PIKE CO APT*     N/A     72  61  67 CALM      30.03S
BIG SANDY APT* CLEAR     69  62  79 CALM      30.02S
MOREHEAD APT*  CLEAR     66  61  82 CALM      30.03S
ASHLAND*       CLEAR     64  61  88 CALM      29.98S
$$

KYZ035-036-041-042-044-050-067-078-099-310500
...CENTRAL KENTUCKY...

CITY           SKY/WX    TMP DP  RH WIND       PRES   REMARKS
MT STERLING*   CLEAR     63  63 100 CALM      30.03S
FLEMING/MASON* CLEAR     69  62  78 CALM      30.02S
DANVILLE*      CLEAR     64  61  88 CALM      30.02S
RICHMOND*      CLEAR     68  61  77 CALM      30.01S
LEXINGTON      CLEAR     68  60  75 CALM      30.01F
FRANKFORT      CLEAR     66  58  75 CALM      29.99S
LOUISVILLE     PTCLDY    76  58  53 CALM      29.98S
LEBANON*         N/A     73  59  60 CALM      30.01S
GLASGOW*       CLOUDY    65  65  97 CALM      29.99F
BOWLING GREEN  CLOUDY    70  61  73 CALM      29.99S
$$

KYZ091>093-OHZ055-061-077-WVZ005-015-034-035-042-310500
...SOUTHERN OHIO/WEST VIRGINIA...

CITY           SKY/WX    TMP DP  RH WIND       PRES   REMARKS
COVINGTON      PTCLDY    66  58  75 SE3       29.99F
COLUMBUS       PTCLDY    68  59  73 CALM      29.98S
DAYTON         PTCLDY    71  56  58 CALM      30.00S
WILMINGTON     CLEAR     68  61  78 CALM      29.99F
HUNTINGTON       N/A     66  62  87 CALM      29.99F
CHARLESTON       N/A     67  62  84 CALM      30.00S
PINEVILLE*       N/A     63  59  88 MISG      30.09S
BECKLEY          N/A     63  59  87 CALM      30.07S
BLUEFIELD        N/A     67  57  70 N5        30.09F
LOGAN CO APT*    N/A     70  63  78 CALM      30.03S
$$

VAZ002-007-008-TNZ017-027-036-066-071-310500
...SOUTHWEST VIRGINIA/EAST TENNESSEE...

CITY           SKY/WX    TMP DP  RH WIND       PRES   REMARKS
WISE*            N/A     66  54  63 CALM      30.10S
JONESVILLE*      N/A     64  63  94 CALM      30.04F
ABINGDON*        N/A     66  62  86 CALM      30.05F
BRISTOL        CLEAR     64  60  87 CALM      30.02F
SEVIERVILLE*   CLEAR     64  61  88 CALM      29.99F
OAK RIDGE      CLEAR     71  64  78 CALM      30.00F
CROSSVILLE     CLEAR     67  58  72 CALM      30.04F
NASHVILLE      CLEAR     73  59  61 CALM      29.99S
$$

...KEY TO REMARKS...
VSB - VISIBILITY IN MILES
WCI - WIND CHILL INDEX
HX  - HEAT INDEX

$$




USA.gov is the U.S. government's official web portal to all federal, state and local government web resources and services.